Regional Weather Roundup
Issued by NWS Charleston, SC

Current Version | Previous Version | Graphics & Text | Print | Product List | Glossary On
Versions: 1 2 3 4 5 6 7 8 9 10 11 12 13 14 15 16 17 18 19 20 21 22 23 24 25 26 27 28 29 30 31 32 33 34 35 36 37 38 39 40 41 42 43 44 45 46 47 48 49 50
000 ASUS42 KCHS 281811 RWRCHS REGIONAL WEATHER ROUNDUP NATIONAL WEATHER SERVICE CHARLESTON SC 100 PM EST WED JAN 28 2015 NOTE: "FAIR" INDICATES FEW OR NO CLOUDS BELOW 12,000 FEET WITH NO SIGNIFICANT WEATHER AND/OR OBSTRUCTIONS TO VISIBILITY. NOT ALL STATIONS ARE QUALITY CONTROLLED BY THE NATIONAL WEATHER SERVICE. USE DATA WITH CAUTION...ESPECIALLY DEWPOINT OBSERVATIONS. SCZ027-030-031-034>040-042>050-281900- ...SOUTHEAST SOUTH CAROLINA... CITY SKY/WX TMP DP RH WIND PRES REMARKS N CHARLESTON SUNNY 45 19 35 N14G21 30.24F 6HR MIN TEMP: 27; 6HR MAX TEMP: 46; WATERFRONT PRK N/A 43 N/A N/A N12G17 N/A MOUNT PLEASANT FAIR N/A N/A N/A NW8 30.23F PINOPOLIS NOT AVBL MONCKS CORNER FAIR 43 21 42 N8 30.26F SUMMERVILLE FAIR 45 23 42 N5G10 30.26F BEAUFORT MCAS SUNNY 47 20 34 NW16G22 30.25F 6HR MIN TEMP: 33; 6HR MAX TEMP: 48; BEAUFORT ARPT FAIR 46 27 46 N14 30.24F HILTON HEAD IS SUNNY N/A N/A N/A N12G23 30.26F WALTERBORO CLEAR 46 14 27 N7G16 30.26F ALLENDALE FAIR 46 18 31 N5G12 30.25F ...SOUTHERN MIDLANDS AND PEE DEE... CITY SKY/WX TMP DP RH WIND PRES REMARKS GEORGETOWN NOT AVBL KINGSTREE NOT AVBL ORANGEBURG SUNNY 45 17 32 NE10 30.26F 6HR MIN TEMP: 29; 6HR MAX TEMP: 46; 6HR PCP: TRACE; BARNWELL FAIR 48 19 32 N10 30.26F AIKEN FAIR 45 19 36 N7 30.28F MANNING FAIR 45 18 33 NE5 30.26F COLUMBIA SUNNY 47 17 30 N6G16 30.26F 6HR MIN TEMP: 31; 6HR MAX TEMP: 47; SUMTER SUNNY 45 17 33 VRB3 30.25F 6HR MIN TEMP: 29; 6HR MAX TEMP: 45; 6HR PCP: TRACE; FLORENCE SUNNY 44 16 32 N8 30.25F 6HR MIN TEMP: 28; 6HR MAX TEMP: 44; MYRTLE BEACH SUNNY 43 18 36 N9 30.25F N MYRTLE BEACH SUNNY 43 18 36 N13G21 30.21F 6HR MIN TEMP: 29; 6HR MAX TEMP: 43; $$ GAZ063-065-086>088-099>101-113>116-118-119-134>141-150-281900- ...SOUTHEAST GEORGIA... CITY SKY/WX TMP DP RH WIND PRES REMARKS SAVANNAH ARPT SUNNY 50 17 27 N15 30.25F 6HR MIN TEMP: 31; 6HR MAX TEMP: 50; HUNTER AAF SUNNY 51 19 28 NW14 30.22F 6HR MIN TEMP: 34; 6HR MAX TEMP: 51; FORT STEWART SUNNY 50 23 34 N8 30.24F 6HR MIN TEMP: 29; 6HR MAX TEMP: 50; STATESBORO SUNNY 48 22 35 N9 30.26S SYLVANIA CLEAR 47 23 37 N12 30.27F CLAXTON FAIR 50 28 43 NE7 30.26F ...CSRA...CENTRAL AND FAR SOUTHEAST GEORGIA... CITY SKY/WX TMP DP RH WIND PRES REMARKS THOMSON SUNNY 50 21 32 N6 30.31F AUGUSTA-BUSH SUNNY 49 12 22 N9 30.27F 6HR MIN TEMP: 22; 6HR MAX TEMP: 49; AUGUSTA-DANIEL SUNNY 48 11 22 NW7 30.27F SWAINSBORO FAIR 52 1 12 N6 30.27F VIDALIA SUNNY 50 27 40 NE3 30.27F EASTMAN FAIR 50 28 41 E5 30.29F HAZLEHURST FAIR 51 28 39 NE5 30.25F ALMA SUNNY 51 26 37 N8 30.26F 6HR MIN TEMP: 31; 6HR MAX TEMP: 51; WAYCROSS SUNNY 53 32 44 N5 30.26F JESUP FAIR 54 27 35 NE7 30.25F BAXLEY FAIR 50 28 43 CALM 30.26F BRUNSWICK SUNNY 52 19 28 NE6 30.26S SAINT SIMONS SUNNY 50 19 29 N8G16 30.25F 6HR MIN TEMP: 36; 6HR MAX TEMP: 51; $$ SCZ027-028-034-036>038-045-046-048>050-GAZ119-141-281900- ...LAKE AND SUPPLEMENTAL COASTAL OBSERVATIONS... STATION/POSITION TIME TEMP WIND PRES WAVE SWELL AIR SEA DIR/SP/G HT/PER HT/PER/DIR (UTC) (F) (DEG/KT/KT) (MB) (FT/S) (FT/S/D) UPR LAKE MARION NOT AVBL WINYAH BAY NOT AVBL LAKE MURRAY 1700 43 10/ 2/ 7 1025.1S ACE BASIN NERRS NOT AVBL FORT PULASKI 1700 43 52 340/ 7/ 11 1025.1 SAPELO ISLAND 1700 48 10/ 11 1025.0S $$ ANZ835-935-AMZ111-154-330-350-352-354-370-450-454-472-281900- ...C-MAN AND BUOY OBSERVATIONS... STATION/POSITION TIME TEMP WIND PRES WAVE SWELL AIR SEA DIR/SP/G HT/PER HT/PER/DIR (UTC) (F) (DEG/KT/KT) (MB) (FT/S) (FT/S/D) BUOY 41004 1750 41 67 10/ 16/ 21 1023.1F 5/ 6 2/13 BUOY 41008 1750 44 54 20/ 14/ 17 1023.9F 4/ 6 2/ 80/13 FOLLY BEACH CMAN 1700 41 340/ 8/ 11 1024.9F CAPERS NEARSHORE 1700 41 360/ 10/ 12 N/A FRIPP NEARSHORE 1700 42 350/ 12/ 16 1023.4F STATION/POSITION TIME TEMP WIND PRES WAVE SWELL AIR SEA DIR/SP/G HT/PER HT/PER/DIR (UTC) (F) (DEG/KT/KT) (MB) (FT/S) (FT/S/D) 5E ST. MARYS GA 1722 57 N/A 4/ 5 2/110/14 FRYING PAN BUOY 1750 40 64 360/ 17/ 21 1022.7F 6/ 5 2/120/13 BUOY 41025 1750 37 57 340/ 23/ 29 1020.0S 9/11 7/ 40/11 CAPE LOOKOUT NC 1700 38 360/ 12/ 16 1021.7F BUOY 41002 1750 56 72 330/ 23/ 31 1016.6F 10/ 8 7/ 10/13 BUOY 41010 1720 62 75 320/ 16/ 19 1019.9F ST AUGUSTINE FL 1800 49 360/ 16/ 19 1024.2F $$

USA.gov is the U.S. government's official web portal to all federal, state and local government web resources and services.